Regional Weather Roundup
Issued by NWS

Home | Current Version | Previous Version | Graphics & Text | Print | Product List | Glossary Off
Versions: 1 2 3 4 5 6 7 8 9 10 11 12 13 14 15 16 17 18 19 20 21 22 23 24 25 26 27 28 29 30 31 32 33 34 35 36 37 38 39 40 41 42 43 44 45 46 47 48 49 50

000
ASUS43 KOAX 280602
RWRNE

WEATHER ROUNDUP FOR NEBRASKA
NATIONAL WEATHER SERVICE OMAHA NE
100 AM CDT TUE APR 28 2015

NOTES: SATELLITE DATA IS BEING USED TO AUGMENT CLOUD COVER ABOVE
       12000 FEET.
       "FAIR" INDICATES FEW OR NO CLOUDS BELOW 12,000 FEET WITH NO
       SIGNIFICANT WEATHER AND/OR OBSTRUCTIONS TO VISIBILITY.

  * THESE STATIONS DO NOT REPORT WEATHER SUCH AS RAIN...SNOW OR FOG.

NEZ001>004-019>022-054>056-280700-
NEBRASKA PANHANDLE

CITY           SKY/WX    TMP DP  RH WIND       PRES   REMARKS
SCOTTSBLUFF    CLOUDY    47  41  80 N5        30.36R
6HR MIN TEMP:  47; 6HR MAX TEMP:  54;

ALLIANCE       MOCLDY    41  39  93 N7        30.34R
6HR MIN TEMP:  41; 6HR MAX TEMP:  56;

CHADRON        CLOUDY    45  42  89 CALM      30.36S
6HR MIN TEMP:  44; 6HR MAX TEMP:  51;

KIMBALL        CLOUDY    45  42  91 NE6       30.34R
SIDNEY         CLOUDY    46  41  82 N8        30.34R
6HR MIN TEMP:  46; 6HR MAX TEMP:  57;

$$

NEZ057>060-069>072-079>082-280700-
SOUTHWEST NEBRASKA

CITY           SKY/WX    TMP DP  RH WIND       PRES   REMARKS
NORTH PLATTE   PTCLDY    50  40  68 N14       30.28R
6HR MIN TEMP:  47; 6HR MAX TEMP:  65;

IMPERIAL       MOCLDY    45  34  65 N9        30.27R
6HR MIN TEMP:  43; 6HR MAX TEMP:  61;

MCCOOK         PTCLDY    43  35  73 NW3       30.24R
6HR MIN TEMP:  43; 6HR MAX TEMP:  65;

$$

NEZ005>010-023>029-035>040-094-280700-
NORTH CENTRAL NEBRASKA

CITY           SKY/WX    TMP DP  RH WIND       PRES   REMARKS
VALENTINE      CLOUDY    46  40  79 N8        30.33R
6HR MIN TEMP:  46; 6HR MAX TEMP:  63;

AINSWORTH      PTCLDY    46  41  84 N9        30.31R
BROKEN BOW     PTCLDY    50  40  68 N14       30.26R
6HR MIN TEMP:  42; 6HR MAX TEMP:  65;

O`NEILL        CLEAR     49  43  79 NW10      30.26R
ORD            CLEAR     46  36  68 NW10      30.24R
6HR MIN TEMP:  40; 6HR MAX TEMP:  65;

$$

NEZ041-046>049-061>064-073>077-083>087-280700-
SOUTH CENTRAL NEBRASKA

CITY           SKY/WX    TMP DP  RH WIND       PRES   REMARKS
GRAND ISLAND   CLEAR     42  34  73 NW3       30.22R
6HR MIN TEMP:  41; 6HR MAX TEMP:  66;

AURORA         CLEAR     44  35  73 N8        30.21R
HASTINGS       PTCLDY    43  36  76 NW7       30.21R
6HR MIN TEMP:  42; 6HR MAX TEMP:  61;

KEARNEY *      CLEAR     45  32  61 NW6       30.23S
$$

NEZ011>018-030>034-042>045-280700-
NORTHEAST NEBRASKA

CITY           SKY/WX    TMP DP  RH WIND       PRES   REMARKS
NORFOLK        PTCLDY    47  29  49 CALM      30.21R
6HR MIN TEMP:  40; 6HR MAX TEMP:  67;

BLAIR          CLEAR     55  30  37 NE6       30.18S
COLUMBUS *     PTCLDY    43  32  65 CALM      30.22R
FREMONT        CLEAR     48  37  66 CALM      30.19S
TEKAMAH        PTCLDY    44  34  67 CALM      30.19R
6HR MIN TEMP:  43; 6HR MAX TEMP:  69;

$$

NEZ050>053-065>068-078-088>093-280700-
SOUTHEAST NEBRASKA

CITY           SKY/WX    TMP DP  RH WIND       PRES   REMARKS
LINCOLN        PTCLDY    44  36  73 N5        30.20R
6HR MIN TEMP:  43; 6HR MAX TEMP:  66;

OMAHA EPPLEY   MOCLDY    44  39  82 NW7       30.18R
6HR MIN TEMP:  44; 6HR MAX TEMP:  69;

FALLS CITY     PTCLDY    50  35  56 N6        30.15S
6HR MIN TEMP:  50; 6HR MAX TEMP:  65;

PLATTSMOUTH    CLEAR     51  31  46 CALM      30.18R
$$

NEZ044-045-051>053-067-280700-
OMAHA AREA

CITY           SKY/WX    TMP DP  RH WIND       PRES   REMARKS
OMAHA EPPLEY   MOCLDY    44  39  82 NW7       30.18R
6HR MIN TEMP:  44; 6HR MAX TEMP:  69;

BLAIR          CLEAR     55  30  37 NE6       30.18S
FREMONT        CLEAR     48  37  66 CALM      30.19S
OFFUTT AFB     CLEAR     45  38  75 W3        30.17S
PLATTSMOUTH    CLEAR     51  31  46 CALM      30.18R
$$



USA.gov is the U.S. government's official web portal to all federal, state and local government web resources and services.